﻿_id,Serial No,Timestamp,Temperature,Humidity
1,1406831618,2014-08-01T00:03:38,23,85
2,1406831926,2014-08-01T00:08:46,22.9,85
3,1406832234,2014-08-01T00:13:54,22.9,86
4,1406832541,2014-08-01T00:19:01,22.9,86
5,1406832798,2014-08-01T00:23:18,22.9,86
6,1406833105,2014-08-01T00:28:25,22.8,86
7,1406833412,2014-08-01T00:33:32,22.8,86
8,1406833719,2014-08-01T00:38:39,22.8,87
9,1406834028,2014-08-01T00:43:48,22.8,87
10,1406834336,2014-08-01T00:48:56,22.7,87
11,1406834643,2014-08-01T00:54:03,22.7,88
12,1406834951,2014-08-01T00:59:11,22.7,88
13,1406835259,2014-08-01T01:04:19,22.7,88
14,1406835566,2014-08-01T01:09:26,22.6,87
15,1406835874,2014-08-01T01:14:34,22.6,88
16,1406836181,2014-08-01T01:19:41,22.5,88
17,1406836385,2014-08-01T01:23:05,22.5,88
18,1406836693,2014-08-01T01:28:13,22.5,88
19,1406837000,2014-08-01T01:33:20,22.5,88
20,1406837308,2014-08-01T01:38:28,22.5,88
21,1406837615,2014-08-01T01:43:35,22.5,88
22,1406837923,2014-08-01T01:48:43,22.5,88
23,1406838334,2014-08-01T01:55:34,22.5,88
24,1406838641,2014-08-01T02:00:41,22.5,88
25,1406838950,2014-08-01T02:05:50,22.5,88
26,1406839258,2014-08-01T02:10:58,22.5,88
27,1406839564,2014-08-01T02:16:04,22.4,88
28,1406839872,2014-08-01T02:21:12,22.4,88
29,1406840179,2014-08-01T02:26:19,22.4,88
30,1406840487,2014-08-01T02:31:27,22.4,88
31,1406840795,2014-08-01T02:36:35,22.4,88
32,1406841102,2014-08-01T02:41:42,22.4,88
33,1406841410,2014-08-01T02:46:50,22.4,88
34,1406841717,2014-08-01T02:51:57,22.4,88
35,1406842025,2014-08-01T02:57:05,22.4,88
36,1406842333,2014-08-01T03:02:13,22.4,88
37,1406842640,2014-08-01T03:07:20,22.4,88
38,1406842948,2014-08-01T03:12:28,22.4,88
39,1406843143,2014-08-01T03:15:43,22.4,88
40,1406843450,2014-08-01T03:20:50,22.4,88
41,1406843871,2014-08-01T03:27:51,22.4,88
42,1406844178,2014-08-01T03:32:58,22.4,88
43,1406844433,2014-08-01T03:37:13,22.4,88
44,1406844741,2014-08-01T03:42:21,22.4,88
45,1406845153,2014-08-01T03:49:13,22.3,88
46,1406845460,2014-08-01T03:54:20,22.3,88
47,1406845715,2014-08-01T03:58:35,22.3,88
48,1406845971,2014-08-01T04:02:51,22.3,88
49,1406846279,2014-08-01T04:07:59,22.3,88
50,1406846587,2014-08-01T04:13:07,22.3,88
51,1406846885,2014-08-01T04:18:05,22.3,89
52,1406847193,2014-08-01T04:23:13,22.2,89
53,1406847509,2014-08-01T04:28:29,22.2,89
54,1406847817,2014-08-01T04:33:37,22.2,89
55,1406848229,2014-08-01T04:40:29,22.2,89
56,1406848536,2014-08-01T04:45:36,22.2,89
57,1406848844,2014-08-01T04:50:44,22.1,89
58,1406849152,2014-08-01T04:55:52,22.1,89
59,1406849458,2014-08-01T05:00:58,22.1,89
60,1406849766,2014-08-01T05:06:06,22.1,89
61,1406849961,2014-08-01T05:09:21,22.1,89
62,1406850269,2014-08-01T05:14:29,22.1,90
63,1406850577,2014-08-01T05:19:37,22.1,90
64,1406850884,2014-08-01T05:24:44,22.1,90
65,1406851304,2014-08-01T05:31:44,22,90
66,1406851612,2014-08-01T05:36:52,22,90
67,1406851919,2014-08-01T05:41:59,22,90
68,1406852227,2014-08-01T05:47:07,22,90
69,1406852473,2014-08-01T05:51:13,22,90
70,1406852729,2014-08-01T05:55:29,22,90
71,1406853150,2014-08-01T06:02:30,22,90
72,1406853457,2014-08-01T06:07:37,21.9,90
73,1406853816,2014-08-01T06:13:36,21.9,90
74,1406854124,2014-08-01T06:18:44,21.9,90
75,1406854431,2014-08-01T06:23:51,21.9,90
76,1406854739,2014-08-01T06:28:59,21.9,90
77,1406855046,2014-08-01T06:34:06,21.9,90
78,1406855353,2014-08-01T06:39:13,22,90
79,1406855662,2014-08-01T06:44:22,22,90
80,1406855969,2014-08-01T06:49:29,22,90
81,1406856277,2014-08-01T06:54:37,22,90
82,1406856585,2014-08-01T06:59:45,22,90
83,1406856892,2014-08-01T07:04:52,22,90
84,1406857200,2014-08-01T07:10:00,22,90
85,1406857507,2014-08-01T07:15:07,22,90
86,1406857814,2014-08-01T07:20:14,22,90
87,1406858070,2014-08-01T07:24:30,22,90
88,1406858378,2014-08-01T07:29:38,22,90
89,1406858686,2014-08-01T07:34:46,21.9,90
90,1406858993,2014-08-01T07:39:53,22,90
91,1406859302,2014-08-01T07:45:02,22,90
92,1406859610,2014-08-01T07:50:10,22,90
93,1406859813,2014-08-01T07:53:33,22,90
94,1406860121,2014-08-01T07:58:41,22,90
95,1406860531,2014-08-01T08:05:31,22,90
96,1406860839,2014-08-01T08:10:39,22,90
97,1406861148,2014-08-01T08:15:48,22,90
98,1406861455,2014-08-01T08:20:55,22,90
99,1406861762,2014-08-01T08:26:02,22,90
100,1406862069,2014-08-01T08:31:09,22,90
101,1406862377,2014-08-01T08:36:17,22,90
102,1406862685,2014-08-01T08:41:25,22.1,90
103,1406862992,2014-08-01T08:46:32,22.1,90
104,1406863300,2014-08-01T08:51:40,22.2,90
105,1406863608,2014-08-01T08:56:48,22.2,90
106,1406863915,2014-08-01T09:01:55,22.3,90
107,1406864223,2014-08-01T09:07:03,22.3,90
108,1406864530,2014-08-01T09:12:10,22.4,90
109,1406864838,2014-08-01T09:17:18,22.4,90
110,1406865146,2014-08-01T09:22:26,22.4,90
111,1406865453,2014-08-01T09:27:33,22.4,90
112,1406865761,2014-08-01T09:32:41,22.5,90
113,1406866068,2014-08-01T09:37:48,22.5,91
114,1406866375,2014-08-01T09:42:55,22.5,91
115,1406866632,2014-08-01T09:47:12,22.6,91
116,1406866940,2014-08-01T09:52:20,22.6,91
117,1406867247,2014-08-01T09:57:27,22.6,90
118,1406867554,2014-08-01T10:02:34,22.6,90
119,1406867862,2014-08-01T10:07:42,22.6,90
120,1406868170,2014-08-01T10:12:50,22.7,90
121,1406868477,2014-08-01T10:17:57,22.7,90
122,1406868785,2014-08-01T10:23:05,22.7,90
123,1406868988,2014-08-01T10:26:28,22.7,90
124,1406869296,2014-08-01T10:31:36,22.7,90
125,1406869605,2014-08-01T10:36:45,22.7,90
126,1406869912,2014-08-01T10:41:52,22.8,90
127,1406870219,2014-08-01T10:46:59,22.9,89
128,1406870527,2014-08-01T10:52:07,22.9,89
129,1406870834,2014-08-01T10:57:14,22.9,89
130,1406871142,2014-08-01T11:02:22,23,89
131,1406871449,2014-08-01T11:07:29,23.1,89
132,1406871757,2014-08-01T11:12:37,23.2,89
133,1406872169,2014-08-01T11:19:29,23.3,88
134,1406872476,2014-08-01T11:24:36,23.4,87
135,1406872680,2014-08-01T11:28:00,23.4,87
136,1406872987,2014-08-01T11:33:07,23.4,87
137,1406873294,2014-08-01T11:38:14,23.4,87
138,1406873602,2014-08-01T11:43:22,23.4,87
139,1406873901,2014-08-01T11:48:21,23.4,87
140,1406874209,2014-08-01T11:53:29,23.4,87
141,1406874517,2014-08-01T11:58:37,23.5,87
142,1406874824,2014-08-01T12:03:44,23.6,87
143,1406875132,2014-08-01T12:08:52,23.7,87
144,1406875439,2014-08-01T12:13:59,23.8,86
145,1406875860,2014-08-01T12:21:00,23.9,86
146,1406876168,2014-08-01T12:26:08,23.9,85
147,1406876475,2014-08-01T12:31:15,24,85
148,1406876783,2014-08-01T12:36:23,24.1,85
149,1406877089,2014-08-01T12:41:29,24.2,85
150,1406877397,2014-08-01T12:46:37,24.3,84
151,1406877706,2014-08-01T12:51:46,24.4,83
152,1406878013,2014-08-01T12:56:53,24.5,83
153,1406878321,2014-08-01T13:02:01,24.6,83
154,1406878629,2014-08-01T13:07:09,24.6,83
155,1406878936,2014-08-01T13:12:16,24.6,83
156,1406879244,2014-08-01T13:17:24,24.6,82
157,1406879550,2014-08-01T13:22:30,24.7,82
158,1406879858,2014-08-01T13:27:38,24.7,82
159,1406880166,2014-08-01T13:32:46,24.8,82
160,1406880473,2014-08-01T13:37:53,24.8,82
161,1406880730,2014-08-01T13:42:10,24.8,82
162,1406881037,2014-08-01T13:47:17,24.8,82
163,1406881345,2014-08-01T13:52:25,24.9,81
164,1406881652,2014-08-01T13:57:32,24.9,81
165,1406881960,2014-08-01T14:02:40,24.9,81
166,1406882268,2014-08-01T14:07:48,24.9,82
167,1406882576,2014-08-01T14:12:56,24.9,82
168,1406882884,2014-08-01T14:18:04,25,81
169,1406883191,2014-08-01T14:23:11,25,81
170,1406883498,2014-08-01T14:28:18,25,81
171,1406883807,2014-08-01T14:33:27,25.1,81
172,1406884114,2014-08-01T14:38:34,25.1,81
173,1406884370,2014-08-01T14:42:50,25.1,81
174,1406884677,2014-08-01T14:47:57,25.2,80
175,1406884985,2014-08-01T14:53:05,25.1,82
176,1406885293,2014-08-01T14:58:13,25,83
177,1406885651,2014-08-01T15:04:11,24.9,84
178,1406885959,2014-08-01T15:09:19,24.9,84
179,1406886266,2014-08-01T15:14:26,25,85
180,1406886573,2014-08-01T15:19:33,25.1,84
181,1406886881,2014-08-01T15:24:41,25.1,83
182,1406887189,2014-08-01T15:29:49,25.1,83
183,1406887495,2014-08-01T15:34:55,25.1,84
184,1406887803,2014-08-01T15:40:03,25.1,84
185,1406888112,2014-08-01T15:45:12,25.1,83
186,1406888420,2014-08-01T15:50:20,25.1,83
187,1406888728,2014-08-01T15:55:28,25.1,83
188,1406889035,2014-08-01T16:00:35,25.1,83
189,1406889291,2014-08-01T16:04:51,25.2,83
190,1406889598,2014-08-01T16:09:58,25.2,83
191,1406889958,2014-08-01T16:15:58,25.2,82
192,1406890266,2014-08-01T16:21:06,25.2,82
193,1406890561,2014-08-01T16:26:01,25.2,80
194,1406890817,2014-08-01T16:30:17,25.3,79
195,1406891135,2014-08-01T16:35:35,25.3,78
196,1406891442,2014-08-01T16:40:42,25.3,77
197,1406891854,2014-08-01T16:47:34,25.3,77
198,1406892162,2014-08-01T16:52:42,25.3,77
199,1406892469,2014-08-01T16:57:49,25.3,76
200,1406892777,2014-08-01T17:02:57,25.3,76
201,1406893086,2014-08-01T17:08:06,25.3,76
202,1406893393,2014-08-01T17:13:13,25.2,76
203,1406893700,2014-08-01T17:18:20,25.2,76
204,1406894007,2014-08-01T17:23:27,25.2,77
205,1406894315,2014-08-01T17:28:35,25.2,77
206,1406894623,2014-08-01T17:33:43,25.2,77
207,1406894930,2014-08-01T17:38:50,25.2,77
208,1406895238,2014-08-01T17:43:58,25.2,77
209,1406895545,2014-08-01T17:49:05,25.2,77
210,1406895853,2014-08-01T17:54:13,25.2,76
211,1406896161,2014-08-01T17:59:21,25.2,76
212,1406896468,2014-08-01T18:04:28,25.2,77
213,1406896775,2014-08-01T18:09:35,25.2,77
214,1406897083,2014-08-01T18:14:43,25.3,76
215,1406897340,2014-08-01T18:19:00,25.3,76
216,1406897648,2014-08-01T18:24:08,25.3,76
217,1406897955,2014-08-01T18:29:15,25.3,77
218,1406898263,2014-08-01T18:34:23,25.2,77
219,1406898569,2014-08-01T18:39:29,25.1,77
220,1406898877,2014-08-01T18:44:37,25,78
221,1406899186,2014-08-01T18:49:46,24.8,80
222,1406899493,2014-08-01T18:54:53,24.7,81
223,1406899851,2014-08-01T19:00:51,24.5,83
224,1406900159,2014-08-01T19:05:59,24.4,83
225,1406900413,2014-08-01T19:10:13,24.3,84
226,1406900720,2014-08-01T19:15:20,24.2,85
227,1406901028,2014-08-01T19:20:28,24.1,85
228,1406901335,2014-08-01T19:25:35,24,85
229,1406901643,2014-08-01T19:30:43,23.9,85
230,1406901951,2014-08-01T19:35:51,23.9,85
231,1406902258,2014-08-01T19:40:58,23.8,85
232,1406902566,2014-08-01T19:46:06,23.8,85
233,1406902866,2014-08-01T19:51:06,23.7,85
234,1406903173,2014-08-01T19:56:13,23.7,85
235,1406903480,2014-08-01T20:01:20,23.7,85
236,1406903787,2014-08-01T20:06:27,23.6,85
237,1406904209,2014-08-01T20:13:29,23.6,84
238,1406904517,2014-08-01T20:18:37,23.5,84
239,1406904773,2014-08-01T20:22:53,23.5,84
240,1406905081,2014-08-01T20:28:01,23.5,84
241,1406905440,2014-08-01T20:34:00,23.5,84
242,1406905747,2014-08-01T20:39:07,23.4,84
243,1406906055,2014-08-01T20:44:15,23.4,84
244,1406906362,2014-08-01T20:49:22,23.4,84
245,1406906669,2014-08-01T20:54:29,23.4,84
246,1406906977,2014-08-01T20:59:37,23.4,84
247,1406907285,2014-08-01T21:04:45,23.3,84
248,1406907593,2014-08-01T21:09:53,23.3,84
249,1406907900,2014-08-01T21:15:00,23.3,84
250,1406908208,2014-08-01T21:20:08,23.3,84
251,1406908515,2014-08-01T21:25:15,23.3,84
252,1406908822,2014-08-01T21:30:22,23.3,84
253,1406909130,2014-08-01T21:35:30,23.2,84
254,1406909438,2014-08-01T21:40:38,23.2,83
255,1406909682,2014-08-01T21:44:42,23.2,83
256,1406909939,2014-08-01T21:48:59,23.2,83
257,1406910255,2014-08-01T21:54:15,23.2,82
258,1406910563,2014-08-01T21:59:23,23.2,82
259,1406910977,2014-08-01T22:06:17,23.1,83
260,1406911284,2014-08-01T22:11:24,23.1,83
261,1406911537,2014-08-01T22:15:37,23.1,82
262,1406911793,2014-08-01T22:19:53,23.1,82
263,1406912101,2014-08-01T22:25:01,23,82
264,1406912409,2014-08-01T22:30:09,23,82
265,1406912821,2014-08-01T22:37:01,23,82
266,1406913129,2014-08-01T22:42:09,23,82
267,1406913437,2014-08-01T22:47:17,23,82
268,1406913744,2014-08-01T22:52:24,23,82
269,1406914052,2014-08-01T22:57:32,23,82
270,1406914359,2014-08-01T23:02:39,23,82
271,1406914667,2014-08-01T23:07:47,23,82
272,1406914975,2014-08-01T23:12:55,23,82
273,1406915282,2014-08-01T23:18:02,22.9,82
274,1406915590,2014-08-01T23:23:10,22.9,82
275,1406915846,2014-08-01T23:27:26,22.9,83
276,1406916154,2014-08-01T23:32:34,22.9,82
277,1406916461,2014-08-01T23:37:41,22.9,83
278,1406916769,2014-08-01T23:42:49,22.9,83
279,1406917128,2014-08-01T23:48:48,22.8,83
280,1406917436,2014-08-01T23:53:56,22.8,83
281,1406917740,2014-08-01T23:59:00,22.7,84
282,1406917996,2014-08-02T00:03:16,22.7,84
283,1406918304,2014-08-02T00:08:24,22.6,85
284,1406918611,2014-08-02T00:13:31,22.6,85
285,1406919025,2014-08-02T00:20:25,22.5,85
286,1406919333,2014-08-02T00:25:33,22.5,85
287,1406919639,2014-08-02T00:30:39,22.4,85
288,1406919947,2014-08-02T00:35:47,22.4,86
289,1406920307,2014-08-02T00:41:47,22.3,86
290,1406920614,2014-08-02T00:46:54,22.3,86
291,1406920867,2014-08-02T00:51:07,22.3,86
292,1406921175,2014-08-02T00:56:15,22.2,87
293,1406921473,2014-08-02T01:01:13,22.2,87
294,1406921781,2014-08-02T01:06:21,22.2,87
295,1406922204,2014-08-02T01:13:24,22.2,87
296,1406922511,2014-08-02T01:18:31,22.1,87
297,1406922819,2014-08-02T01:23:39,22.1,88
298,1406923127,2014-08-02T01:28:47,22.1,88
299,1406923433,2014-08-02T01:33:53,22.1,88
300,1406923741,2014-08-02T01:39:01,22.1,88
301,1406923995,2014-08-02T01:43:15,22.1,88
302,1406924251,2014-08-02T01:47:31,22.1,88
303,1406924664,2014-08-02T01:54:24,22.1,88
304,1406924971,2014-08-02T01:59:31,22,88
305,1406925331,2014-08-02T02:05:31,22,88
306,1406925639,2014-08-02T02:10:39,22,88
307,1406925945,2014-08-02T02:15:45,21.9,88
308,1406926253,2014-08-02T02:20:53,21.9,89
309,1406926612,2014-08-02T02:26:52,21.9,89
310,1406926919,2014-08-02T02:31:59,21.9,89
311,1406927227,2014-08-02T02:37:07,21.8,89
312,1406927535,2014-08-02T02:42:15,21.8,89
313,1406927842,2014-08-02T02:47:22,21.8,89
314,1406928150,2014-08-02T02:52:30,21.8,89
315,1406928458,2014-08-02T02:57:38,21.8,89
316,1406928765,2014-08-02T03:02:45,21.8,89
317,1406929073,2014-08-02T03:07:53,21.8,89
318,1406929380,2014-08-02T03:13:00,21.8,89
319,1406929688,2014-08-02T03:18:08,21.8,89
320,1406929996,2014-08-02T03:23:16,21.8,89
321,1406930303,2014-08-02T03:28:23,21.8,89
322,1406930560,2014-08-02T03:32:40,21.8,89
323,1406930867,2014-08-02T03:37:47,21.8,89
324,1406931175,2014-08-02T03:42:55,21.8,89
325,1406931481,2014-08-02T03:48:01,21.8,89
326,1406931789,2014-08-02T03:53:09,21.8,89
327,1406932097,2014-08-02T03:58:17,21.8,89
328,1406932404,2014-08-02T04:03:24,21.8,89
329,1406932712,2014-08-02T04:08:32,21.8,89
330,1406933020,2014-08-02T04:13:40,21.8,89
331,1406933328,2014-08-02T04:18:48,21.8,89
332,1406933636,2014-08-02T04:23:56,21.8,89
333,1406933995,2014-08-02T04:29:55,21.8,89
334,1406934251,2014-08-02T04:34:11,21.8,89
335,1406934610,2014-08-02T04:40:10,21.8,89
336,1406934917,2014-08-02T04:45:17,21.8,89
337,1406935224,2014-08-02T04:50:24,21.8,89
338,1406935532,2014-08-02T04:55:32,21.8,89
339,1406935839,2014-08-02T05:00:39,21.8,89
340,1406936147,2014-08-02T05:05:47,21.8,89
341,1406936340,2014-08-02T05:09:00,21.8,89
342,1406936647,2014-08-02T05:14:07,21.8,88
343,1406936965,2014-08-02T05:19:25,21.7,88
344,1406937272,2014-08-02T05:24:32,21.7,88
345,1406937685,2014-08-02T05:31:25,21.7,88
346,1406937993,2014-08-02T05:36:33,21.7,88
347,1406938300,2014-08-02T05:41:40,21.7,88
348,1406938608,2014-08-02T05:46:48,21.7,88
349,1406938916,2014-08-02T05:51:56,21.7,88
350,1406939223,2014-08-02T05:57:03,21.7,88
351,1406939531,2014-08-02T06:02:11,21.7,88
352,1406939838,2014-08-02T06:07:18,21.7,88
353,1406940145,2014-08-02T06:12:25,21.6,88
354,1406940401,2014-08-02T06:16:41,21.6,89
355,1406940710,2014-08-02T06:21:50,21.6,89
356,1406941018,2014-08-02T06:26:58,21.6,89
357,1406941325,2014-08-02T06:32:05,21.6,89
358,1406941633,2014-08-02T06:37:13,21.6,89
359,1406941833,2014-08-02T06:40:33,21.6,89
360,1406942141,2014-08-02T06:45:41,21.6,89
361,1406942555,2014-08-02T06:52:35,21.6,89
362,1406942862,2014-08-02T06:57:42,21.6,89
363,1406943170,2014-08-02T07:02:50,21.6,89
364,1406943478,2014-08-02T07:07:58,21.6,89
365,1406943786,2014-08-02T07:13:06,21.6,89
366,1406944094,2014-08-02T07:18:14,21.6,89
367,1406944400,2014-08-02T07:23:20,21.6,88
368,1406944708,2014-08-02T07:28:28,21.6,88
369,1406945016,2014-08-02T07:33:36,21.6,88
370,1406945323,2014-08-02T07:38:43,21.7,89
371,1406945631,2014-08-02T07:43:51,21.7,88
372,1406945938,2014-08-02T07:48:58,21.7,89
373,1406946196,2014-08-02T07:53:16,21.7,89
374,1406946503,2014-08-02T07:58:23,21.7,89
375,1406946861,2014-08-02T08:04:21,21.8,89
376,1406947169,2014-08-02T08:09:29,21.8,88
377,1406947477,2014-08-02T08:14:37,21.8,88
378,1406947784,2014-08-02T08:19:44,21.8,88
379,1406948092,2014-08-02T08:24:52,21.8,88
380,1406948399,2014-08-02T08:29:59,21.9,88
381,1406948707,2014-08-02T08:35:07,21.9,88
382,1406949015,2014-08-02T08:40:15,21.9,88
383,1406949322,2014-08-02T08:45:22,21.9,88
384,1406949630,2014-08-02T08:50:30,21.9,88
385,1406949937,2014-08-02T08:55:37,22,88
386,1406950245,2014-08-02T09:00:45,22,88
387,1406950552,2014-08-02T09:05:52,22,88
388,1406950859,2014-08-02T09:10:59,22,88
389,1406951117,2014-08-02T09:15:17,22,88
390,1406951424,2014-08-02T09:20:24,22.1,88
391,1406951732,2014-08-02T09:25:32,22.1,88
392,1406952040,2014-08-02T09:30:40,22.1,88
393,1406952347,2014-08-02T09:35:47,22.2,87
394,1406952655,2014-08-02T09:40:55,22.2,87
395,1406952962,2014-08-02T09:46:02,22.2,87
396,1406953270,2014-08-02T09:51:10,22.3,87
397,1406953577,2014-08-02T09:56:17,22.3,88
398,1406953884,2014-08-02T10:01:24,22.4,87
399,1406954193,2014-08-02T10:06:33,22.4,87
400,1406954500,2014-08-02T10:11:40,22.4,87
401,1406954807,2014-08-02T10:16:47,22.5,87
402,1406955115,2014-08-02T10:21:55,22.6,87
403,1406955422,2014-08-02T10:27:02,22.6,87
404,1406955730,2014-08-02T10:32:10,22.7,87
405,1406956039,2014-08-02T10:37:19,22.7,86
406,1406956346,2014-08-02T10:42:26,22.7,86
407,1406956538,2014-08-02T10:45:38,22.7,86
408,1406956845,2014-08-02T10:50:45,22.8,87
409,1406957268,2014-08-02T10:57:48,22.8,86
410,1406957576,2014-08-02T11:02:56,22.9,86
411,1406957883,2014-08-02T11:08:03,23,85
412,1406958191,2014-08-02T11:13:11,23,85
413,1406958498,2014-08-02T11:18:18,23.1,85
414,1406958806,2014-08-02T11:23:26,23.1,85
415,1406959114,2014-08-02T11:28:34,23.1,84
416,1406959421,2014-08-02T11:33:41,23.2,84
417,1406959780,2014-08-02T11:39:40,23.2,84
418,1406960037,2014-08-02T11:43:57,23.3,84
419,1406960344,2014-08-02T11:49:04,23.3,84
420,1406960652,2014-08-02T11:54:12,23.4,83
421,1406960959,2014-08-02T11:59:19,23.5,83
422,1406961267,2014-08-02T12:04:27,23.5,82
423,1406961575,2014-08-02T12:09:35,23.6,83
424,1406961882,2014-08-02T12:14:42,23.7,82
425,1406962190,2014-08-02T12:19:50,23.7,81
426,1406962498,2014-08-02T12:24:58,23.8,81
427,1406962804,2014-08-02T12:30:04,23.8,81
428,1406963112,2014-08-02T12:35:12,23.8,81
429,1406963419,2014-08-02T12:40:19,23.8,81
430,1406963727,2014-08-02T12:45:27,23.8,81
431,1406963920,2014-08-02T12:48:40,23.8,81
432,1406964227,2014-08-02T12:53:47,23.9,81
433,1406964535,2014-08-02T12:58:55,23.9,81
434,1406964842,2014-08-02T13:04:02,23.9,81
435,1406965265,2014-08-02T13:11:05,23.9,80
436,1406965573,2014-08-02T13:16:13,23.9,80
437,1406965881,2014-08-02T13:21:21,23.9,80
438,1406966189,2014-08-02T13:26:29,24,80
439,1406966599,2014-08-02T13:33:19,24.1,80
440,1406966855,2014-08-02T13:37:35,24.1,80
441,1406967162,2014-08-02T13:42:42,24.2,80
442,1406967470,2014-08-02T13:47:50,24.2,80
443,1406967777,2014-08-02T13:52:57,24.2,80
444,1406968085,2014-08-02T13:58:05,24.3,80
445,1406968286,2014-08-02T14:01:26,24.3,79
446,1406968593,2014-08-02T14:06:33,24.3,80
447,1406968901,2014-08-02T14:11:41,24.3,79
448,1406969208,2014-08-02T14:16:48,24.3,79
449,1406969516,2014-08-02T14:21:56,24.4,79
450,1406969824,2014-08-02T14:27:04,24.4,78
451,1406970238,2014-08-02T14:33:58,24.4,78
452,1406970546,2014-08-02T14:39:06,24.5,78
453,1406970853,2014-08-02T14:44:13,24.5,78
454,1406971161,2014-08-02T14:49:21,24.6,78
455,1406971469,2014-08-02T14:54:29,24.7,77
456,1406971776,2014-08-02T14:59:36,24.8,77
457,1406972083,2014-08-02T15:04:43,24.8,77
458,1406972339,2014-08-02T15:08:59,24.8,77
459,1406972648,2014-08-02T15:14:08,24.9,77
460,1406972955,2014-08-02T15:19:15,25,76
461,1406973314,2014-08-02T15:25:14,25,76
462,1406973622,2014-08-02T15:30:22,25.1,76
463,1406973929,2014-08-02T15:35:29,25.1,76
464,1406974236,2014-08-02T15:40:36,25.2,76
465,1406974545,2014-08-02T15:45:45,25.2,76
466,1406974852,2014-08-02T15:50:52,25.3,75
467,1406975160,2014-08-02T15:56:00,25.4,75
468,1406975468,2014-08-02T16:01:08,25.4,75
469,1406975719,2014-08-02T16:05:19,25.4,74
470,1406975975,2014-08-02T16:09:35,25.4,74
471,1406976283,2014-08-02T16:14:43,25.4,74
472,1406976590,2014-08-02T16:19:50,25.4,74
473,1406976898,2014-08-02T16:24:58,25.4,74
474,1406977205,2014-08-02T16:30:05,25.4,74
475,1406977514,2014-08-02T16:35:14,25.4,74
476,1406977822,2014-08-02T16:40:22,25.4,74
477,1406978235,2014-08-02T16:47:15,25.3,74
478,1406978543,2014-08-02T16:52:23,25.3,74
479,1406978850,2014-08-02T16:57:30,25.2,74
480,1406979158,2014-08-02T17:02:38,25.2,74
481,1406979261,2014-08-02T17:04:21,25.2,74
482,1406979568,2014-08-02T17:09:28,25.1,75
483,1406979876,2014-08-02T17:14:36,25.1,75
484,1406980183,2014-08-02T17:19:43,25.1,75
485,1406980491,2014-08-02T17:24:51,25.1,75
486,1406980799,2014-08-02T17:29:59,25,75
487,1406981106,2014-08-02T17:35:06,25,75
488,1406981414,2014-08-02T17:40:14,25,75
489,1406981722,2014-08-02T17:45:22,25,76
490,1406982029,2014-08-02T17:50:29,25,76
491,1406982337,2014-08-02T17:55:37,24.9,76
492,1406982644,2014-08-02T18:00:44,24.9,76
493,1406982952,2014-08-02T18:05:52,24.9,76
494,1406983260,2014-08-02T18:11:00,24.8,76
495,1406983567,2014-08-02T18:16:07,24.8,76
496,1406983874,2014-08-02T18:21:14,24.8,76
497,1406984182,2014-08-02T18:26:22,24.8,76
498,1406984490,2014-08-02T18:31:30,24.7,76
499,1406984798,2014-08-02T18:36:38,24.7,76
500,1406985105,2014-08-02T18:41:45,24.7,76
501,1406985413,2014-08-02T18:46:53,24.6,75
502,1406985721,2014-08-02T18:52:01,24.6,76
503,1406985977,2014-08-02T18:56:17,24.5,75
504,1406986279,2014-08-02T19:01:19,24.5,75
505,1406986535,2014-08-02T19:05:35,24.4,76
506,1406986950,2014-08-02T19:12:30,24.4,76
507,1406987258,2014-08-02T19:17:38,24.4,76
508,1406987509,2014-08-02T19:21:49,24.3,76
509,1406987817,2014-08-02T19:26:57,24.3,76
510,1406988125,2014-08-02T19:32:05,24.3,76
511,1406988539,2014-08-02T19:38:59,24.2,76
512,1406988847,2014-08-02T19:44:07,24.2,76
513,1406989047,2014-08-02T19:47:27,24.2,76
514,1406989354,2014-08-02T19:52:34,24.2,77
515,1406989662,2014-08-02T19:57:42,24.1,77
516,1406989970,2014-08-02T20:02:50,24.1,77
517,1406990385,2014-08-02T20:09:45,24.1,77
518,1406990693,2014-08-02T20:14:53,24.1,77
519,1406991000,2014-08-02T20:20:00,24.1,78
520,1406991052,2014-08-02T20:20:52,24.1,77
521,1406991359,2014-08-02T20:25:59,24.2,78
522,1406991667,2014-08-02T20:31:07,24.3,78
523,1406991974,2014-08-02T20:36:14,24.3,77
524,1406992282,2014-08-02T20:41:22,24.4,77
525,1406992590,2014-08-02T20:46:30,24.4,77
526,1406992846,2014-08-02T20:50:46,24.4,77
527,1406993153,2014-08-02T20:55:53,24.4,77
528,1406993353,2014-08-02T20:59:13,24.4,77
529,1406993661,2014-08-02T21:04:21,24.3,77
530,1406993969,2014-08-02T21:09:29,24.2,77
531,1406994276,2014-08-02T21:14:36,24.2,77
532,1406994692,2014-08-02T21:21:32,24.1,77
533,1406994999,2014-08-02T21:26:39,24,78
534,1406995190,2014-08-02T21:29:50,24,78
535,1406995498,2014-08-02T21:34:58,23.9,78
536,1406995804,2014-08-02T21:40:04,23.9,78
537,1406996112,2014-08-02T21:45:12,23.8,78
538,1406996420,2014-08-02T21:50:20,23.8,78
539,1406996728,2014-08-02T21:55:28,23.8,79
540,1406997036,2014-08-02T22:00:36,23.8,79
541,1406997343,2014-08-02T22:05:43,23.7,79
542,1406997651,2014-08-02T22:10:51,23.7,79
543,1406997959,2014-08-02T22:15:59,23.6,80
544,1406998266,2014-08-02T22:21:06,23.6,80
545,1406998574,2014-08-02T22:26:14,23.6,80
546,1406998998,2014-08-02T22:33:18,23.6,80
547,1406999306,2014-08-02T22:38:26,23.5,80
548,1406999613,2014-08-02T22:43:33,23.5,80
549,1406999920,2014-08-02T22:48:40,23.4,80
550,1407000279,2014-08-02T22:54:39,23.4,81
551,1407000587,2014-08-02T22:59:47,23.4,81
552,1407000839,2014-08-02T23:03:59,23.4,81
553,1407001146,2014-08-02T23:09:06,23.3,81
554,1407001453,2014-08-02T23:14:13,23.3,81
555,1407001761,2014-08-02T23:19:21,23.3,81
556,1407002068,2014-08-02T23:24:28,23.3,81
557,1407002376,2014-08-02T23:29:36,23.3,81
558,1407002683,2014-08-02T23:34:43,23.2,81
559,1407002991,2014-08-02T23:39:51,23.2,81
560,1407003299,2014-08-02T23:44:59,23.2,81
561,1407003606,2014-08-02T23:50:06,23.1,81
562,1407003914,2014-08-02T23:55:14,23.1,81